User: anonymous
Location: Unspecified
(0.0000°N, 0.0000°E)
Time: 11:21:10
(UTC+00:00)
Language:

A-11 Canister half - Orbit

View from above orbital plane
View from above orbital plane
View from above satellite
View from above satellite

Ground track
Ground track

The orbit data is extracted from the following two-line orbital elements,

1 00053U 60009E   14291.12405314 -.00000086  00000-0  00000+0 0  5899
2 00053 047.2731 159.9865 0099998 086.3336 080.0057 12.17150707416529
Epoch (UTC): 18 October 2014 02:58:38
Eccentricity: 0.0099998
inclination: 47.2731°
perigee height: 1525 km
apogee height: 1685 km
right ascension of ascending node: 159.9865°
argument of perigee: 86.3336°
revolutions per day: 12.17150707
mean anomaly at epoch: 80.0057°
orbit number at epoch: 41652

The dashed part of the orbit path shows where the satellite is in the earth's shadow,  

DLR